| time (UTC) | temp F | wind direction | speed MPH | gust MPH | rain 1hr in | rain 24hr in | rain mn in | humidity % | barometer mb |
| 20260901054542 | 81 | 170 | 1.0 | 3.0 | 0.00 | 0.00 | 0.00 | 62 | 1016.9 |
| 20260901053044 | 81 | 173 | 1.0 | 3.0 | 0.00 | 0.00 | 0.00 | 61 | 1016.9 |
| 20260901051543 | 82 | 182 | 0.0 | 3.0 | 0.00 | 0.00 | 0.00 | 60 | 1016.7 |
| 20260901050041 | 82 | 189 | 1.0 | 3.0 | 0.00 | 0.00 | 0.00 | 59 | 1016.7 |
| 20260901044553 | 83 | 180 | 1.0 | 4.0 | 0.00 | 0.00 | 0.00 | 58 | 1016.6 |
| 20260901043042 | 84 | 193 | 1.0 | 4.0 | 0.00 | 0.00 | 0.00 | 57 | 1016.6 |
| 20260901041543 | 85 | 185 | 1.0 | 6.0 | 0.00 | 0.00 | 0.00 | 56 | 1016.5 |
| 20260901040049 | 85 | 165 | 2.0 | 5.0 | 0.00 | 0.00 | 0.00 | 55 | 1016.4 |
| 20260901034542 | 85 | 162 | 2.0 | 5.0 | 0.00 | 0.00 | 0.00 | 55 | 1016.6 |
| 20260901033057 | 85 | 154 | 1.0 | 4.0 | 0.00 | 0.00 | 0.00 | 54 | 1016.5 |
| 20260901031541 | 85 | 161 | 1.0 | 3.0 | 0.00 | 0.00 | 0.00 | 54 | 1016.3 |
| 20260901030037 | 86 | 148 | 1.0 | 5.0 | 0.00 | 0.00 | 0.00 | 54 | 1016.3 |
| 20260901024539 | 85 | 148 | 1.0 | 4.0 | 0.00 | 0.00 | 0.00 | 55 | 1016.3 |
| 20260901023046 | 84 | 136 | 1.0 | 2.0 | 0.00 | 0.00 | 0.00 | 58 | 1016.0 |
| 20260901021559 | 84 | 0 | 0.0 | 1.0 | 0.00 | 0.00 | 0.00 | 59 | 1015.9 |
| 20260901020045 | 84 | 136 | 0.0 | 2.0 | 0.00 | 0.00 | 0.00 | 58 | 1015.7 |
| 20260901014542 | 85 | 0 | 0.0 | 0.0 | 0.00 | 0.00 | 0.00 | 56 | 1015.6 |
| 20260901013051 | 86 | 0 | 0.0 | 0.0 | 0.00 | 0.00 | 0.00 | 55 | 1015.4 |
| 20260901011606 | 87 | 0 | 0.0 | 1.0 | 0.00 | 0.00 | 0.00 | 53 | 1015.1 |
| 20260901010042 | 89 | 0 | 0.0 | 1.0 | 0.00 | 0.00 | 0.00 | 52 | 1015.1 |
| 20260901004547 | 90 | 0 | 0.0 | 0.0 | 0.00 | 0.00 | 0.00 | 50 | 1015.1 |
| 20260901003046 | 91 | 0 | 0.0 | 1.0 | 0.00 | 0.00 | 0.00 | 48 | 1015.0 |
| 20260901001541 | 92 | 0 | 0.0 | 1.0 | 0.00 | 0.00 | 0.00 | 46 | 1015.0 |
| 20260901000045 | 94 | 136 | 1.0 | 3.0 | 0.00 | 0.00 | 0.00 | 44 | 1015.0 |
| 20260831234556 | 95 | 136 | 1.0 | 5.0 | 0.00 | 0.00 | 0.00 | 42 | 1015.0 |
| 20260831233044 | 96 | 154 | 1.0 | 4.0 | 0.00 | 0.00 | 0.00 | 40 | 1014.9 |
| 20260831231542 | 97 | 144 | 1.0 | 6.0 | 0.00 | 0.00 | 0.00 | 38 | 1014.8 |
| 20260831230039 | 98 | 157 | 2.0 | 7.0 | 0.00 | 0.00 | 0.00 | 36 | 1014.7 |
| 20260831224546 | 98 | 206 | 1.0 | 7.0 | 0.00 | 0.00 | 0.00 | 35 | 1014.9 |
| 20260831223046 | 99 | 161 | 2.0 | 6.0 | 0.00 | 0.00 | 0.00 | 35 | 1014.9 |
| 20260831221559 | 99 | 135 | 2.0 | 8.0 | 0.00 | 0.00 | 0.00 | 35 | 1015.0 |
| 20260831220039 | 99 | 207 | 3.0 | 8.0 | 0.00 | 0.00 | 0.00 | 33 | 1015.1 |
| 20260831214547 | 100 | 153 | 4.0 | 8.0 | 0.00 | 0.00 | 0.00 | 34 | 1015.1 |
| 20260831213041 | 100 | 137 | 3.0 | 9.0 | 0.00 | 0.00 | 0.00 | 33 | 1015.1 |
| 20260831211546 | 100 | 157 | 3.0 | 8.0 | 0.00 | 0.00 | 0.00 | 33 | 1015.2 |
| 20260831210044 | 100 | 0 | 2.0 | 10.0 | 0.00 | 0.00 | 0.00 | 33 | 1015.3 |
| 20260831204544 | 100 | 322 | 2.0 | 9.0 | 0.00 | 0.00 | 0.00 | 33 | 1015.5 |
| 20260831203049 | 100 | 159 | 3.0 | 7.0 | 0.00 | 0.00 | 0.00 | 33 | 1015.6 |
| 20260831201547 | 100 | 185 | 4.0 | 10.0 | 0.00 | 0.00 | 0.00 | 32 | 1015.8 |
| 20260831200047 | 100 | 185 | 2.0 | 6.0 | 0.00 | 0.00 | 0.00 | 33 | 1016.1 |
| 20260831194542 | 100 | 170 | 3.0 | 9.0 | 0.00 | 0.00 | 0.00 | 33 | 1016.1 |
| 20260831193040 | 100 | 146 | 2.0 | 6.0 | 0.00 | 0.00 | 0.00 | 34 | 1016.2 |
| 20260831191538 | 99 | 176 | 3.0 | 7.0 | 0.00 | 0.00 | 0.00 | 34 | 1016.3 |
| 20260831190056 | 100 | 181 | 3.0 | 8.0 | 0.00 | 0.00 | 0.00 | 34 | 1016.6 |
| 20260831184541 | 99 | 257 | 2.0 | 7.0 | 0.00 | 0.00 | 0.00 | 34 | 1016.8 |
| 20260831183041 | 99 | 167 | 2.0 | 10.0 | 0.00 | 0.00 | 0.00 | 36 | 1017.0 |
| 20260831181544 | 98 | 248 | 2.0 | 8.0 | 0.00 | 0.00 | 0.00 | 36 | 1017.1 |
| 20260831180054 | 98 | 217 | 1.0 | 8.0 | 0.00 | 0.00 | 0.00 | 38 | 1017.3 |
| 20260831174546 | 98 | 202 | 1.0 | 9.0 | 0.00 | 0.00 | 0.00 | 39 | 1017.2 |
| 20260831173041 | 97 | 231 | 2.0 | 7.0 | 0.00 | 0.00 | 0.00 | 39 | 1017.6 |
| 20260831171541 | 96 | 240 | 3.0 | 10.0 | 0.00 | 0.00 | 0.00 | 41 | 1017.7 |
| 20260831170037 | 96 | 133 | 2.0 | 11.0 | 0.00 | 0.00 | 0.00 | 44 | 1018.0 |
| 20260831164543 | 95 | 155 | 1.0 | 8.0 | 0.00 | 0.00 | 0.00 | 47 | 1018.0 |
| 20260831163043 | 94 | 348 | 2.0 | 11.0 | 0.00 | 0.00 | 0.00 | 48 | 1018.2 |
| 20260831161547 | 93 | 141 | 2.0 | 7.0 | 0.00 | 0.00 | 0.00 | 49 | 1018.1 |
| 20260831160043 | 92 | 192 | 1.0 | 7.0 | 0.00 | 0.00 | 0.00 | 50 | 1018.0 |
| 20260831154604 | 91 | 0 | 2.0 | 11.0 | 0.00 | 0.00 | 0.00 | 53 | 1018.2 |
| 20260831153042 | 90 | 169 | 2.0 | 8.0 | 0.00 | 0.00 | 0.00 | 54 | 1018.2 |
| 20260831151540 | 89 | 178 | 3.0 | 11.0 | 0.00 | 0.00 | 0.00 | 54 | 1018.3 |
| 20260831150045 | 88 | 175 | 3.0 | 10.0 | 0.00 | 0.00 | 0.00 | 56 | 1018.1 |
| 20260831144549 | 87 | 180 | 2.0 | 11.0 | 0.00 | 0.00 | 0.00 | 57 | 1018.2 |
| 20260831143040 | 86 | 147 | 2.0 | 14.0 | 0.00 | 0.00 | 0.00 | 59 | 1018.1 |
| 20260831141609 | 84 | 212 | 1.0 | 9.0 | 0.00 | 0.00 | 0.00 | 61 | 1018.0 |
| 20260831140041 | 83 | 128 | 1.0 | 7.0 | 0.00 | 0.00 | 0.00 | 63 | 1018.0 |
| 20260831134546 | 81 | 0 | 1.0 | 8.0 | 0.00 | 0.00 | 0.00 | 64 | 1018.0 |
| 20260831133044 | 80 | 239 | 0.0 | 6.0 | 0.00 | 0.00 | 0.00 | 66 | 1017.9 |
| 20260831131539 | 78 | 191 | 0.0 | 4.0 | 0.00 | 0.00 | 0.00 | 67 | 1017.8 |
| 20260831130039 | 77 | 0 | 0.0 | 3.0 | 0.00 | 0.00 | 0.00 | 69 | 1017.8 |
| 20260831124549 | 76 | 0 | 0.0 | 6.0 | 0.00 | 0.00 | 0.00 | 70 | 1017.6 |
| 20260831123044 | 75 | 0 | 0.0 | 7.0 | 0.00 | 0.00 | 0.00 | 71 | 1017.3 |
| 20260831121538 | 74 | 204 | 1.0 | 4.0 | 0.00 | 0.00 | 0.00 | 71 | 1017.1 |
| 20260831120043 | 74 | 0 | 0.0 | 2.0 | 0.00 | 0.00 | 0.00 | 71 | 1016.8 |
| 20260831114541 | 74 | 203 | 0.0 | 2.0 | 0.00 | 0.00 | 0.00 | 71 | 1016.4 |
| 20260831113044 | 74 | 0 | 0.0 | 5.0 | 0.00 | 0.00 | 0.00 | 71 | 1016.3 |
| 20260831111540 | 74 | 0 | 0.0 | 5.0 | 0.00 | 0.00 | 0.00 | 70 | 1016.2 |
| 20260831110045 | 74 | 190 | 0.0 | 3.0 | 0.00 | 0.00 | 0.00 | 70 | 1016.1 |
| 20260831104543 | 75 | 0 | 0.0 | 3.0 | 0.00 | 0.00 | 0.00 | 69 | 1016.1 |
| 20260831103041 | 75 | 174 | 1.0 | 3.0 | 0.00 | 0.00 | 0.00 | 69 | 1015.9 |
| 20260831101550 | 75 | 206 | 0.0 | 4.0 | 0.00 | 0.00 | 0.00 | 69 | 1015.9 |
| 20260831100047 | 75 | 0 | 1.0 | 4.0 | 0.00 | 0.00 | 0.00 | 68 | 1015.9 |
| 20260831094546 | 76 | 180 | 0.0 | 3.0 | 0.00 | 0.00 | 0.00 | 68 | 1015.9 |
| 20260831093044 | 76 | 160 | 1.0 | 4.0 | 0.00 | 0.00 | 0.00 | 67 | 1015.8 |
| 20260831091557 | 76 | 161 | 1.0 | 5.0 | 0.00 | 0.00 | 0.00 | 67 | 1015.8 |
| 20260831090046 | 76 | 167 | 2.0 | 5.0 | 0.00 | 0.00 | 0.00 | 67 | 1015.7 |
| 20260831084543 | 76 | 176 | 1.0 | 4.0 | 0.00 | 0.00 | 0.00 | 67 | 1015.8 |
| 20260831083041 | 76 | 0 | 0.0 | 5.0 | 0.00 | 0.00 | 0.00 | 67 | 1015.8 |
| 20260831081548 | 76 | 167 | 1.0 | 4.0 | 0.00 | 0.00 | 0.00 | 67 | 1015.7 |
| 20260831080105 | 77 | 158 | 1.0 | 4.0 | 0.00 | 0.00 | 0.00 | 67 | 1015.5 |
| 20260831074541 | 77 | 192 | 0.0 | 4.0 | 0.00 | 0.00 | 0.00 | 66 | 1015.5 |
| 20260831073109 | 77 | 190 | 0.0 | 3.0 | 0.00 | 0.00 | 0.00 | 66 | 1015.7 |
| 20260831071551 | 78 | 150 | 1.0 | 4.0 | 0.00 | 0.00 | 0.00 | 65 | 1015.7 |
| 20260831070046 | 78 | 164 | 0.0 | 5.0 | 0.00 | 0.00 | 0.00 | 64 | 1015.8 |
| 20260831064545 | 79 | 162 | 2.0 | 5.0 | 0.00 | 0.00 | 0.00 | 64 | 1015.7 |
| 20260831063045 | 79 | 149 | 2.0 | 5.0 | 0.00 | 0.00 | 0.00 | 64 | 1015.9 |
| 20260831061544 | 79 | 161 | 2.0 | 5.0 | 0.00 | 0.00 | 0.00 | 63 | 1015.9 |
| 20260831060049 | 79 | 157 | 2.0 | 5.0 | 0.00 | 0.00 | 0.00 | 63 | 1015.8 |